AirNav   Air Wisconsin Up To $57,000 Bonus
 
 958 users online  

7TN7 Pca Heliport
Counce, Tennessee, USA

GOING TO COUNCE?


FAA INFORMATION EFFECTIVE 02 JANUARY 2020

Location

FAA Identifier: 7TN7
Lat/Long: 35-02-07.0000N 088-15-09.0000W
35-02.116667N 088-15.150000W
35.0352778,-88.2525000
(estimated)
SURVEYED BY TN DOT
Elevation: 480 ft. / 146 m (estimated)
Variation: 00E (1995)
Time zone: UTC -6 (UTC -5 during Daylight Saving Time)
Zip code: 38326

Heliport Operations

Heliport use: Private use. Permission required prior to landing
Activation date: 11/1996
Control tower: no
ARTCC: MEMPHIS CENTER
FSS: JACKSON FLIGHT SERVICE STATION
Attendance: UNATNDD
Wind indicator: lighted
Segmented circle: no
Lights: SS-SR

Heliport Communications

WX AWOS-3 at SNH (8 nm N): 133.925 (731-925-6080)
WX AWOS-3 at SZY (16 nm NW): 118.425 (731-645-8184)
WX AWOS-3PT at CRX (19 nm SW): 118.675 (662-287-5103)

Heliport Services

Runway Information

Helipad H1

Dimensions: 30 x 30 ft. / 9 x 9 m
Surface: concrete, in good condition
Runway edge lights: PERI
Latitude: 35-02.116667N
Longitude: 088-15.150000W
Elevation: 480.0 ft.
Traffic pattern: leftleft

Heliport Ownership and Management from official FAA records

Ownership: Privately-owned
Owner: PACKAGING CORP OF AMERICA
6715 HWY 57, P.O. BOX 33
COUNCE, TN 38326
Phone (731) 689-1535
Manager: RICHARD CHILDERS
6715 HWY 57, P.O. BOX 33
COUNCE, TN 38326
Phone (731) 689-1535
CELL: 731-926-6019

Additional Remarks

FOR CD CTC MEMPHIS ARTCC AT 901-368-8453.

Instrument Procedures

There are no published instrument procedures at 7TN7.

Some nearby airports with instrument procedures:

KSNH - Savannah-Hardin County Airport (8 nm N)
KSZY - Robert Sibley Airport (16 nm NW)
KCRX - Roscoe Turner Airport (19 nm SW)
8M1 - Booneville/Baldwyn Airport (33 nm SW)
KMSL - Northwest Alabama Regional Airport (36 nm SE)
 
Loc | Ops | Rwys | IFR | FBO | Links
Com | Nav | Svcs | Stats | Notes
Area around 7TN7 (Pca Heliport)
 
Road maps at: MapQuest Bing Google
 
Aerial photo
No photo
 
Sectional chart

 
Airport distance calculator
Flying to Pca Heliport? Find the distance to fly.

From to 7TN7

Sunrise and sunset
Times for 22-Jan-2020
 Local
(UTC-6)
 Zulu
(UTC)
Morning civil twilight06:3212:32
Sunrise06:5912:59
Sunset17:1023:10
Evening civil twilight17:3723:37

Current date and time
Zulu (UTC)  23-Jan-2020 03:44:11
Local (UTC-6)  22-Jan-2020 21:44:11
 
METAR
KSNH 
8nm N 
230335Z AUTO 00000KT 10SM FEW100 FEW120 02/M03 A3018 RMK A01
KSZY 
16nm NW 
230335Z AUTO 00000KT 10SM FEW110 FEW130 04/M09 A3018 RMK A01
KCRX 
19nm SW 
230335Z AUTO 00000KT 10SM FEW120 03/M04 A3019 RMK AO2
TAF
KMSL 
36nm SE 
221720Z 2218/2318 17005KT P6SM BKN200 FM231400 13006G15KT P6SM BKN045
NOTAMs
Click for the latest NOTAMs
NOTAMs are issued by the DoD/FAA and will open in a separate window not controlled by AirNav.

 

 
 

Would you like to see your business listed on this page?

 If your business provides an interesting product or service to pilots, flight crews, aircraft, or users of the Pca Heliport, you should consider listing it here.  To start the listing process, click on the button below
 
Add a business
 

Other Pages about Pca Heliport

Update a link
 
Copyright © AirNav, LLC. All rights reserved. Privacy Policy  Contact